Location: Sherrills_Ford_Terrell
(35.6000°N, 80.9830°W)
Time: 02:50:56
(UTC-04:00)

ISS - Visible Passes

Search period start: 03 September 2015 00:00
Search period end: 13 September 2015 00:00
Orbit: 400 x 403 km, 51.6° (Epoch: 01 September)

Date Brightness Start Highest point End Pass type
(mag) Time Alt. Az. Time Alt. Az. Time Alt. Az.
06 Sep -0.9 06:14:50 10° S 06:17:15 20° SE 06:19:43 10° E visible
08 Sep -2.7 06:04:11 13° SSW 06:06:55 52° SE 06:10:07 10° ENE visible
09 Sep -1.4 05:13:32 23° SE 05:13:45 23° SE 05:16:27 10° ENE visible
10 Sep -3.1 05:55:23 30° WSW 05:56:43 55° NW 05:59:56 10° NE visible
11 Sep -1.8 05:04:32 37° ENE 05:04:32 37° ENE 05:06:41 10° NE visible
12 Sep -1.9 05:46:12 24° NW 05:46:40 24° NNW 05:49:25 10° NNE visible
